Duchifat 3
1 44854U 19089C   25139.30769095  .00038627  00000-0  80126-3 0  9997
2 44854  36.9426 130.2657 0002078 191.8078 168.2629 15.44775159299723
TO-108
1 44881U 19093C   25139.81452727  .00000952  00000-0  11624-3 0  9996
2 44881  97.7926 215.8982 0012497 303.0672  56.9343 14.85559328292997
FloripaSat 1
1 44885U 19093G   25139.77898222  .00005260  00000-0  44730-3 0  9990
2 44885  97.8140 227.3398 0009014 270.7416  89.2773 14.98243133293632
RS-44
1 44909U 19096E   25139.75815168  .00000022  00000-0  49210-4 0  9996
2 44909  82.5224 241.1097 0217044 344.5620  14.8927 12.79740569252074
UPMSat 2
1 46276U 20061E   25139.16971540  .00059993  00000-0  58751-3 0  9991
2 46276  97.2443 212.8764 0001618 162.9128 197.2187 15.65935143262110
SALSAT
1 46495U 20068K   25139.52017096  .00006298  00000-0  27516-3 0  9993
2 46495  97.8598 116.5826 0009870 229.1267 130.9114 15.22453537255321
CubeSX-Sirius-HSE
1 47951U 21022V   25139.83452640  .00373921  54108-4  12413-2 0  9995
2 47951  97.4106  52.4150 0005728 107.8233 252.3665 15.90274749230550
CubeSX-HSE
1 47952U 21022W   25139.65745617  .00385034  57506-4  12642-2 0  9992
2 47952  97.4122  52.4880 0005217 110.7289 249.4544 15.90497341230543
GRBAlpha
1 47959U 21022AD  25139.39892127  .00375828  53574-4  13584-2 0  9996
2 47959  97.4120  52.2742 0005338 104.6610 255.5254 15.88577373229328
TUBIN
1 48900U 21059X   25139.80773891  .00040468  00000-0  52539-3 0  9990
2 48900  97.6749 307.3776 0002370 297.7817  62.3197 15.58724708216803
LEDSAT
1 49069U 21073D   25139.77132803  .00058162  00000-0  77058-3 0  9994
2 49069  97.3890 220.4831 0011766 154.3594 205.8247 15.58022663208194
CUTE
1 49263U 21088D   25139.20005224  .00015808  00000-0  32330-3 0  9994
2 49263  97.4507 214.8479 0006826 324.8446  35.2352 15.46195860201127
TeikyoSat 4
1 49396U 21102B   25139.57732400  .00002259  00000-0  15243-3 0  9991
2 49396  97.4119 178.7635 0012032 198.0128 162.0676 15.07553371193387
Z-Sat
1 49399U 21102E   25139.87008593  .00004454  00000-0  24631-3 0  9996
2 49399  97.3814 182.0148 0018585 170.7513 189.4065 15.14229254193846
KOSEN 1
1 49402U 21102H   25139.87000831  .00007029  00000-0  32814-3 0  9991
2 49402  97.3719 185.2749 0017145 147.0323 213.1985 15.20001653194142
HO-113
1 50466U 21131B   25139.85765323  .00000529  00000-0  17904-3 0  9998
2 50466  98.5092 229.3133 0004163 181.1365 178.9815 14.40788698178468
IRIS-A
1 51044U 22002BN  25139.72981078  .00386038  61381-4  98136-3 0  9993
2 51044  97.3184 219.5856 0007832 229.6580 130.4013 15.95381972186575
Foresail-1
1 52766U 22057AL  25139.35400014  .00226264  00000-0  90158-3 0  9997
2 52766  97.6049 288.8815 0004626 270.9168  89.1572 15.86033118166522
SNUGLITE 2
1 52899U 22065F   25139.63278732  .00001164  00000-0  23537-3 0  9991
2 52899  98.1661 281.8144 0007902 169.8003 190.3360 14.63161640153428
IO-117
1 53106U 22080B   25051.21822557 -.00000003  00000-0  00000+0 0  9995
2 53106  70.1434 106.3440 0008542  48.0089 312.1297  6.42557744 61200
UmKA 1 (RS40S)
1 57172U 23091G   25139.87095157  .00005172  00000-0  27880-3 0  9992
2 57172  97.5592 195.3627 0015594  51.5986 308.6644 15.15125929104345
CubeBel-2 (EU11S)
1 57175U 23091K   25139.88762231  .00008978  00000-0  43236-3 0  9990
2 57175  97.5591 196.4028 0013476  60.6030 299.6548 15.18906075104414
VERONIKA
1 58261U 23174F   25139.77507082  .00111200  00000-0  11201-2 0  9997
2 58261  97.4125 224.7895 0005718 148.0835 212.0771 15.65029237 85428
ENSO
1 58470U 23185J   25139.84833270  .00044595  00000-0  69626-3 0  9997
2 58470  97.3737 214.3373 0009001 154.6776 205.4921 15.53647765 81811
EIRSAT-1
1 58472U 23185L   25139.86922211  .00086514  00000-0  93196-3 0  9991
2 58472  97.3703 215.9314 0007466 161.6758 198.4771 15.63388169 81926
SONATE-2
1 59112U 24043Q   25139.63996220  .00016368  00000-0  48185-3 0  9991
2 59112  97.5109 270.4129 0011627 183.5100 176.6063 15.35075388 67121
MO-122
1 60209U 24125G   25139.85420651  .00015831  00000-0  46003-3 0  9996
2 60209  97.2822 351.7137 0018419 206.9245 153.1045 15.35382312 48775
GRBBeta
1 60237U 24128C   25139.57307659  .00003801  00000-0  29333-3 0  9992
2 60237  61.9901 152.7906 0050355  52.6168 307.9492 15.02431028 47047
Curium One
1 60242U 24128H   25139.37735073  .00007117  00000-0  50289-3 0  9999
2 60242  61.9800 152.0668 0050228  48.3060 312.2313 15.04760218 47040
ROBUSTA-3A
1 60243U 24128J   25139.44002591  .00006344  00000-0  45594-3 0  9994
2 60243  61.9870 152.6056 0048813  46.0566 314.4537 15.04327068 47042
CatSat
1 60246U 24125J   25139.83030332  .00009250  00000-0  31278-3 0  9994
2 60246  97.2614 351.1359 0043572 166.0119 194.2340 15.29914832 46817
HYPERVIEW-1G (RS66S)
1 61772U 24199AP  25139.88176414  .00017438  00000-0  51972-3 0  9997
2 61772  97.3564   8.7928 0011809 265.0648  94.9247 15.34666838 73783
AO-123
1 61781U 24199AY  25139.88905916  .00006974  00000-0  25663-3 0  9995
2 61781  97.3577   7.8977 0014042 271.2981  88.6649 15.28089394 73721
ZIMSAT 2
1 61783U 24199BA  25139.86930427  .00030222  00000-0  77515-3 0  9996
2 61783  97.3544   9.2463 0011717 261.1580  98.8339 15.39229039 76964
HADES-R (SO-124)
1 62690U 25009CK  25139.20124238  .00033542  00000-0  12378-2 0  9991
2 62690  97.4088 220.1148 0004759 158.1420 202.0023 15.27686620 18882
HYDRA-T
1 62692U 25009CM  25139.18998073  .00034087  00000-0  12496-2 0  9992
2 62692  97.4087 220.1288 0004501 155.4006 204.7449 15.27903468 18886
JINJUSat 1B
1 63210U 25052A   25139.27174893  .00010847  00000-0  50381-3 0  9997
2 63210  97.4438  33.6697 0005867  54.5450 305.6331 15.20166502 10013
NUSHSAT 1
1 63211U 25052B   25139.26945471  .00012247  00000-0  56544-3 0  9998
2 63211  97.4425  33.6648 0006029  58.7100 301.4725 15.20339469 10010
TEVEL2-4
1 63213U 25052D   25139.67402258  .00010745  00000-0  50045-3 0  9997
2 63213  97.4343  33.9729 0005506  72.0044 288.1790 15.20074612 10074
TEVEL2-5
1 63214U 25052E   25139.21357862  .00011521  00000-0  53666-3 0  9993
2 63214  97.4345  33.5189 0005490  72.6433 287.5402 15.20049707 10006
TEVEL2-6
1 63215U 25052F   25139.28098298  .00011998  00000-0  55933-3 0  9993
2 63215  97.4344  33.5824 0005571  73.0521 287.1324 15.20012778 10013
TEVEL2-1
1 63217U 25052H   25139.22325011  .00011339  00000-0  53198-3 0  9995
2 63217  97.4321  33.4866 0005864  81.5803 278.6096 15.19804170 10000
TEVEL2-2
1 63218U 25052J   25139.61857524  .00010429  00000-0  48956-3 0  9993
2 63218  97.4321  33.8756 0005908  81.1992 278.9912 15.19809249 10065
TEVEL2-3
1 63219U 25052K   25139.61863206  .00010367  00000-0  48669-3 0  9990
2 63219  97.4321  33.8754 0005906  81.3533 278.8370 15.19805578 10063
TEVEL2-8
1 63237U 25052AD  25139.14051424  .00011005  00000-0  53404-3 0  9992
2 63237  97.4383  33.3451 0010375  90.2292 270.0131 15.18607531  9983
TEVEL2-9
1 63238U 25052AE  25139.20796878  .00010619  00000-0  51621-3 0  9998
2 63238  97.4383  33.4092 0010491  90.0695 270.1741 15.18556462  9995
TEVEL2-7
1 63239U 25052AF  25139.67070250  .00009964  00000-0  48496-3 0  9996
2 63239  97.4378  33.8596 0010507  89.2089 271.0349 15.18530856 10061
HYDRA-W
1 63490U 25052BL  25139.45058576  .00027421  00000-0  11932-2 0  9990
2 63490  97.4333  33.8066 0014728  87.8292 272.4630 15.22112414 10049
HADES-ICM
1 63492U 25052BN  25139.65734869  .00023294  00000-0  10254-2 0  9990
2 63492  97.4341  33.9927 0014798  91.0527 269.2404 15.21751327 10079
